TimePDT,TemperatureF,Dew PointF,Humidity,Sea Level PressureIn,VisibilityMPH,Wind Direction,Wind SpeedMPH,Gust SpeedMPH,PrecipitationIn,Events,Conditions,WindDirDegrees,DateUTC
12:53 AM,52.0,37.9,59,29.89,10.0,Calm,Calm,-,N/A,,Clear,0,2013-07-28 07:53:00
1:53 AM,52.0,35.1,53,29.88,10.0,South,5.8,-,N/A,,Clear,190,2013-07-28 08:53:00
2:53 AM,45.0,37.0,74,29.88,10.0,Calm,Calm,-,N/A,,Clear,0,2013-07-28 09:53:00
3:53 AM,46.0,37.0,71,29.89,10.0,Calm,Calm,-,N/A,,Clear,0,2013-07-28 10:53:00
4:53 AM,41.0,37.0,86,29.90,10.0,Calm,Calm,-,N/A,,Clear,0,2013-07-28 11:53:00
5:53 AM,41.0,36.0,82,29.91,10.0,Calm,Calm,-,N/A,,Clear,0,2013-07-28 12:53:00
6:53 AM,48.9,39.9,71,29.92,10.0,Calm,Calm,-,N/A,,Clear,0,2013-07-28 13:53:00
7:53 AM,61.0,39.9,46,29.91,5.0,SW,5.8,-,N/A,,Haze,230,2013-07-28 14:53:00
8:53 AM,66.0,37.9,36,29.91,10.0,West,5.8,-,N/A,,Clear,270,2013-07-28 15:53:00
9:53 AM,71.1,36.0,28,29.89,10.0,WNW,6.9,-,N/A,,Clear,290,2013-07-28 16:53:00
10:53 AM,73.9,37.0,26,29.88,10.0,Variable,5.8,-,N/A,,Unknown,0,2013-07-28 17:53:00
11:53 AM,77.0,37.0,24,29.87,10.0,Variable,4.6,-,N/A,,Clear,0,2013-07-28 18:53:00
12:53 PM,80.1,33.1,18,29.86,10.0,Variable,3.5,-,N/A,,Clear,0,2013-07-28 19:53:00
1:53 PM,82.9,33.1,17,29.83,10.0,NW,8.1,-,N/A,,Clear,320,2013-07-28 20:53:00
2:53 PM,84.0,34.0,17,29.83,10.0,WNW,6.9,-,N/A,,Clear,300,2013-07-28 21:53:00
3:53 PM,82.9,34.0,17,29.81,10.0,NW,11.5,-,N/A,,Clear,310,2013-07-28 22:53:00
4:53 PM,82.0,34.0,18,29.82,10.0,NW,15.0,-,N/A,,Clear,310,2013-07-28 23:53:00
5:53 PM,79.0,35.1,20,29.83,10.0,NW,13.8,20.7,N/A,,Clear,320,2013-07-29 00:53:00
6:53 PM,75.0,36.0,24,29.83,10.0,NNW,13.8,24.2,N/A,,Clear,330,2013-07-29 01:53:00
7:53 PM,71.1,37.0,29,29.83,10.0,NW,13.8,-,N/A,,Clear,320,2013-07-29 02:53:00
8:53 PM,64.9,37.0,36,29.84,10.0,NW,11.5,-,N/A,,Clear,320,2013-07-29 03:53:00
9:53 PM,61.0,37.0,41,29.86,10.0,NW,8.1,-,N/A,,Clear,320,2013-07-29 04:53:00
10:53 PM,57.9,37.0,46,29.88,10.0,Calm,Calm,-,N/A,,Clear,0,2013-07-29 05:53:00
11:53 PM,52.0,37.9,59,29.88,10.0,South,3.5,-,N/A,,Clear,170,2013-07-29 06:53:00